Location: Kaseke
(18.0171°S, 31.0526°E)
Time: 12:49:32
(UTC+00:00)

Centaur D-1AR AC-48 - Pass Details

Date: 14 July 2020
Orbit: 618 x 36171 km, 21.9° (Epoch: 07 August)

Event Time Altitude Azimuth Distance (km) Brightness Sun altitude
Exits shadow 02:27:16 56° 295° (WNW) 1,360 2.9 -27.9°
Maximum altitude 02:28:14 63° 336° (NNW) 1,142 2.7 -27.7°
Drops below altitude 10° 02:32:10 10° 59° (ENE) 2,114 5.2 -26.8°
Sets 02:33:47 0° 63° (ENE) 2,891 6.2 -26.4°
